Regional Weather Roundup
Issued by NWS

Home | Current Version | Previous Version | Graphics & Text | Print | Product List | Glossary On
Versions: 1 2 3 4 5 6 7 8 9 10 11 12 13 14 15 16 17 18 19 20 21 22 23 24 25 26 27 28 29 30 31 32 33 34 35 36 37 38 39 40 41 42 43 44 45 46 47 48 49 50
000
ASUS45 KCYS 281110
RWRWY

WYOMING REGIONAL WEATHER ROUNDUP
NATIONAL WEATHER SERVICE CHEYENNE WY
500 AM MDT THU MAY 28 2015

NOTE:  "FAIR" INDICATES FEW OR NO CLOUDS BELOW 12,000 FEET
WITH NO SIGNIFICANT WEATHER AND/OR OBSTRUCTIONS TO VISIBILITY.

WYZ001-281200-
YELLOWSTONE NATIONAL PARK

CITY           SKY/WX    TMP DP  RH WIND       PRES   REMARKS
LK YELLOWSTONE   N/A     37  35  92 CALM      30.16S
W YELLOWSTONE  NOT AVBL

$$
WYZ002>013-054>058-071-098>099-281200-
NORTHERN WYOMING

CITY           SKY/WX    TMP DP  RH WIND       PRES   REMARKS
JACKSON        CLOUDY    41  41 100 SW7       30.13S
CODY           FAIR      50  43  76 SW3       30.01F
GREYBULL       MOCLDY    54  49  83 W3        30.00R
WORLAND        MOCLDY    51  48  89 S6        30.00S
SHERIDAN       CLOUDY    48  46  93 SW6       29.98S
BUFFALO        MOCLDY    49  44  83 W6        30.01F
GILLETTE       CLOUDY    51  49  92 SW3       29.99S
HULETT         CLOUDY    52  48  87 W6        29.99R
NEWCASTLE      FAIR      50  46  87 CALM      29.98R

$$
WYZ014>020-022>026-101>103-281200-
CENTRAL WYOMING

CITY           SKY/WX    TMP DP  RH WIND       PRES   REMARKS
BIG PINEY      FAIR      40  36  86 N9        30.15R WCI  34
PINEDALE       CLOUDY    39  39 100 W5        30.16S
DUBOIS         CLOUDY    41  34  75 NW9       30.10S
LANDER         FAIR      48  39  71 W5        30.05R
RIVERTON       FAIR      46  43  89 W6        30.05R
CASPER         FAIR      47  42  83 W7        30.04R
DOUGLAS        FAIR      46  43  89 CALM      30.03F

$$
WYZ021-027>030-104>119-281200-
SOUTHERN WYOMING

CITY           SKY/WX    TMP DP  RH WIND       PRES   REMARKS
EVANSTON       FAIR      39  37  92 S6        30.16F WCI  35
KEMMERER       PTSUNNY   37  36  93 NW5       30.17S WCI  34
FORT BRIDGER   SUNNY     43  41  93 SW12      30.18F
ROCK SPRINGS   FAIR      44  39  82 SW10      30.14S
DIXON          DRIZZLE   49  45  85 SW5       30.18R
RAWLINS        CLOUDY    47  42  83 W15G21    30.12S
SARATOGA       CLOUDY    45  43  93 SW9       30.15S
LARAMIE        MOCLDY    45  38  76 SW13      30.12F
CHEYENNE       CLOUDY    48  46  93 CALM      30.09R
TORRINGTON     FOG       49  49 100 E3        30.00R VSB 1/2
PINE BLUFFS    FAIR      50  48  93 W3        30.07R

$$


USA.gov is the U.S. government's official web portal to all federal, state and local government web resources and services.